GW3140 Weather Reports


Display with metric or nautical units.
time (UTC)temp
F
wind
direction
speed
MPH
gust
MPH
rain 1hr
in
rain 24hr
in
rain mn
in
humidity
%
barometer
mb
20260506070511 47 0 0.0 2.0 0.00 0.03 0.00 88 1008.0
20260506062515 48 0 0.0 5.0 0.00 0.03 0.00 89 1007.7
20260506062011 48 0 0.0 5.0 0.00 0.03 0.00 89 1007.7
20260506061532 48 0 0.0 3.0 0.00 0.03 0.00 89 1007.7
20260506061013 48 0 0.0 3.0 0.00 0.03 0.00 89 1007.7
20260506060514 48 0 0.0 1.0 0.00 0.03 0.00 89 1007.8
20260506051012 48 0 0.0 0.0 0.00 0.03 0.00 88 1008.3
20260506050510 48 0 0.0 0.0 0.00 0.03 0.00 88 1008.1
20260506045013 48 0 0.0 1.0 0.00 0.03 0.00 88 1008.3
20260506044536 48 0 0.0 1.0 0.00 0.03 0.00 88 1008.4
20260506044011 48 0 0.0 1.0 0.00 0.03 0.00 89 1008.4
20260506043516 48 0 0.0 4.0 0.00 0.03 0.00 89 1008.5
20260506043028 48 0 0.0 4.0 0.00 0.03 0.00 89 1008.4
20260506042515 48 191 0.0 3.0 0.00 0.03 0.00 89 1008.5
20260506042012 48 0 0.0 1.0 0.00 0.03 0.00 89 1008.4
20260506041528 48 0 0.0 2.0 0.00 0.03 0.00 89 1008.4
20260506041011 48 0 0.0 2.0 0.00 0.03 0.00 89 1008.5
20260506040511 49 0 0.0 3.0 0.00 0.03 0.00 89 1008.5
20260506040042 49 190 0.0 3.0 0.00 0.03 0.00 89 1008.5
20260506035510 49 0 0.0 1.0 0.00 0.03 0.03 89 1008.4
20260506035013 49 0 0.0 1.0 0.00 0.03 0.03 89 1008.5
20260506034557 49 0 0.0 3.0 0.00 0.03 0.03 88 1008.3
20260506034010 49 0 0.0 3.0 0.00 0.03 0.03 89 1008.1
20260506033511 49 202 0.0 3.0 0.00 0.03 0.03 88 1008.3
20260506033029 49 0 0.0 3.0 0.00 0.03 0.03 88 1008.5
20260506032511 49 0 0.0 1.0 0.00 0.03 0.03 88 1008.4
20260506032011 49 0 0.0 1.0 0.00 0.03 0.03 88 1008.5
20260506031530 49 0 0.0 0.0 0.00 0.03 0.03 87 1008.5
20260506031012 49 0 0.0 0.0 0.00 0.03 0.03 87 1008.8
20260506030511 49 0 0.0 0.0 0.00 0.03 0.03 87 1008.7
20260506030028 49 0 0.0 0.0 0.00 0.03 0.03 86 1008.7
20260506025512 49 0 0.0 0.0 0.00 0.03 0.03 86 1008.7
20260506025012 49 0 0.0 0.0 0.00 0.03 0.03 86 1008.5
20260506024540 49 0 0.0 0.0 0.00 0.03 0.03 85 1008.4
20260506024012 49 0 0.0 0.0 0.00 0.03 0.03 85 1008.4
20260506023514 49 0 0.0 0.0 0.00 0.03 0.03 85 1008.4
20260506023030 49 0 0.0 0.0 0.00 0.03 0.03 84 1008.4
20260506022511 49 0 0.0 0.0 0.00 0.03 0.03 84 1008.3
20260506022011 49 0 0.0 1.0 0.00 0.03 0.03 84 1008.5
20260506021543 49 0 0.0 1.0 0.00 0.03 0.03 83 1008.4
20260506021013 49 0 0.0 1.0 0.00 0.03 0.03 83 1008.5
20260506020513 49 0 0.0 1.0 0.00 0.03 0.03 83 1008.1
20260506020030 49 0 0.0 0.0 0.00 0.03 0.03 83 1008.2
20260506015512 49 0 0.0 0.0 0.00 0.14 0.03 83 1008.5
20260506015015 49 0 0.0 0.0 0.00 0.14 0.03 83 1008.5
20260506014530 49 0 0.0 0.0 0.00 0.14 0.03 83 1008.4
20260506014012 49 0 0.0 0.0 0.00 0.14 0.03 83 1008.4
20260506013512 49 0 0.0 0.0 0.00 0.14 0.03 83 1008.4
20260506013029 49 0 0.0 0.0 0.00 0.14 0.03 83 1008.3
20260506012512 49 0 0.0 0.0 0.00 0.14 0.03 83 1008.2
20260506012012 49 0 0.0 0.0 0.00 0.14 0.03 83 1008.1
20260506011531 49 0 0.0 0.0 0.00 0.14 0.03 83 1008.2
20260506011010 49 0 0.0 0.0 0.00 0.14 0.03 83 1008.1
20260506010512 49 0 0.0 0.0 0.00 0.14 0.03 82 1008.0
20260506010043 49 0 0.0 0.0 0.00 0.14 0.03 82 1008.0
20260506005512 49 0 0.0 0.0 0.00 0.14 0.03 82 1007.9
20260506005015 50 0 0.0 0.0 0.00 0.14 0.03 82 1007.9
20260506004527 50 0 0.0 0.0 0.00 0.14 0.03 82 1007.9
20260506004010 50 0 0.0 0.0 0.00 0.14 0.03 82 1007.9
20260506003512 50 0 0.0 0.0 0.00 0.14 0.03 82 1007.9
20260506003029 50 0 0.0 0.0 0.00 0.14 0.03 82 1007.8
20260506002515 50 0 0.0 0.0 0.00 0.14 0.03 81 1007.8
20260506002010 50 0 0.0 0.0 0.00 0.14 0.03 81 1007.7
20260506001528 50 0 0.0 0.0 0.00 0.14 0.03 81 1007.7
20260506001010 50 0 0.0 0.0 0.00 0.14 0.03 80 1007.6
20260506000512 50 0 0.0 0.0 0.00 0.14 0.03 80 1007.5
20260506000031 50 0 0.0 0.0 0.00 0.14 0.03 80 1007.5
20260505235511 50 0 0.0 0.0 0.00 0.14 0.03 80 1007.5
20260505235013 50 0 0.0 0.0 0.00 0.14 0.03 80 1007.4
20260505234547 50 0 0.0 0.0 0.00 0.14 0.03 80 1007.5
20260505234013 50 0 0.0 0.0 0.00 0.14 0.03 80 1007.6
20260505233516 50 0 0.0 0.0 0.00 0.14 0.03 80 1007.6
20260505233033 50 0 0.0 0.0 0.00 0.14 0.03 80 1007.5
20260505232514 50 0 0.0 0.0 0.00 0.14 0.03 80 1007.7
20260505232012 50 0 0.0 0.0 0.00 0.14 0.03 80 1007.6
20260505231532 50 0 0.0 0.0 0.00 0.14 0.03 80 1007.7
20260505231012 50 0 0.0 0.0 0.00 0.14 0.03 78 1007.8
20260505230509 50 0 0.0 3.0 0.00 0.14 0.03 78 1007.8
20260505230031 50 0 0.0 3.0 0.00 0.14 0.03 78 1007.8
20260505225511 50 170 0.0 3.0 0.00 0.14 0.03 78 1007.7
20260505225012 50 0 0.0 1.0 0.00 0.14 0.03 77 1007.6
20260505224532 50 0 0.0 1.0 0.00 0.14 0.03 78 1007.7
20260505224016 50 0 0.0 1.0 0.00 0.14 0.03 79 1007.7
20260505223511 50 0 0.0 1.0 0.00 0.14 0.03 78 1007.7
20260505223029 50 0 0.0 2.0 0.00 0.14 0.03 78 1007.7
20260505222512 50 0 0.0 2.0 0.00 0.14 0.03 78 1007.6
20260505222013 50 0 0.0 0.0 0.00 0.14 0.03 78 1007.7
20260505221529 49 0 0.0 0.0 0.00 0.14 0.03 77 1007.7
20260505221012 49 0 0.0 3.0 0.00 0.14 0.03 76 1007.8
20260505220512 49 0 0.0 3.0 0.00 0.14 0.03 76 1007.8
20260505220031 49 209 0.0 3.0 0.00 0.14 0.03 76 1007.9
20260505215512 49 0 0.0 0.0 0.00 0.14 0.03 76 1007.9
20260505215012 49 0 0.0 0.0 0.00 0.14 0.03 77 1007.9
20260505214536 49 0 0.0 0.0 0.00 0.14 0.03 77 1007.8
20260505214015 49 0 0.0 0.0 0.00 0.14 0.03 76 1008.0
20260505213512 49 0 0.0 0.0 0.00 0.14 0.03 75 1008.0
20260505213027 49 0 0.0 0.0 0.00 0.14 0.03 77 1008.0
20260505212517 49 0 0.0 0.0 0.00 0.14 0.03 75 1008.1
20260505212013 49 0 0.0 0.0 0.00 0.14 0.03 76 1008.1
20260505211540 48 0 0.0 0.0 0.00 0.14 0.03 76 1007.9
20260505211013 48 0 0.0 0.0 0.00 0.14 0.03 76 1007.9
20260505210516 48 0 0.0 0.0 0.00 0.14 0.03 75 1007.9
20260505210029 48 0 0.0 0.0 0.00 0.14 0.03 75 1008.0
20260505205512 48 0 0.0 0.0 0.00 0.14 0.03 74 1008.1
20260505205013 48 0 0.0 0.0 0.00 0.14 0.03 75 1008.0
20260505204534 48 0 0.0 0.0 0.00 0.14 0.03 74 1008.1
20260505204010 48 0 0.0 0.0 0.00 0.14 0.03 75 1008.1
20260505203513 48 0 0.0 0.0 0.00 0.14 0.03 75 1008.3
20260505203046 48 0 0.0 0.0 0.00 0.14 0.03 74 1008.3
20260505202511 48 0 0.0 0.0 0.00 0.14 0.03 76 1008.3
20260505202012 48 0 0.0 0.0 0.00 0.14 0.03 75 1008.3
20260505201531 48 0 0.0 0.0 0.00 0.14 0.03 74 1008.4
20260505201018 48 0 0.0 0.0 0.00 0.14 0.03 76 1008.4
20260505200513 48 0 0.0 0.0 0.00 0.14 0.03 75 1008.4
20260505200028 48 0 0.0 0.0 0.00 0.14 0.03 78 1008.4
20260505195512 48 0 0.0 2.0 0.00 0.14 0.03 77 1008.3
20260505195012 48 0 0.0 2.0 0.00 0.14 0.03 76 1008.2
20260505194531 48 0 0.0 0.0 0.00 0.14 0.03 78 1008.3
20260505194016 48 0 0.0 1.0 0.00 0.14 0.03 77 1008.1
20260505193513 48 0 0.0 3.0 0.00 0.14 0.03 77 1008.1
20260505193030 48 0 0.0 3.0 0.00 0.14 0.03 77 1008.1
20260505192512 48 0 0.0 2.0 0.00 0.14 0.03 77 1008.0
20260505192012 48 269 0.0 2.0 0.00 0.14 0.03 78 1008.1
20260505191529 48 0 0.0 2.0 0.00 0.14 0.03 79 1008.1
20260505191012 48 0 1.0 2.0 0.01 0.14 0.03 78 1008.0
20260505190511 48 0 0.0 2.0 0.02 0.14 0.03 77 1007.7
20260505190031 48 0 0.0 2.0 0.02 0.14 0.03 76 1007.7
20260505185513 48 0 0.0 2.0 0.02 0.14 0.03 80 1007.9
20260505185011 48 269 0.0 3.0 0.02 0.14 0.03 79 1007.8
20260505184541 47 269 1.0 3.0 0.03 0.14 0.03 76 1007.7
20260505184014 47 0 0.0 2.0 0.03 0.14 0.03 77 1007.6
20260505183524 47 295 0.0 2.0 0.03 0.14 0.03 80 1007.5
20260505183039 47 0 0.0 1.0 0.03 0.14 0.03 78 1007.7
20260505182512 47 0 0.0 1.0 0.03 0.14 0.03 79 1007.6
20260505182013 48 0 0.0 1.0 0.03 0.14 0.03 76 1007.7
20260505181531 48 0 0.0 1.0 0.03 0.13 0.03 76 1007.4
20260505181010 48 0 0.0 1.0 0.02 0.12 0.02 73 1007.5
20260505180509 48 272 0.0 2.0 0.01 0.11 0.01 72 1007.5
20260505180031 48 0 0.0 3.0 0.01 0.11 0.01 71 1007.4
20260505175510 49 0 0.0 3.0 0.01 0.11 0.01 71 1007.4
20260505175013 49 0 0.0 1.0 0.01 0.11 0.01 72 1007.3
20260505174530 49 274 0.0 3.0 0.00 0.11 0.00 72 1007.3
20260505174011 50 0 0.0 3.0 0.00 0.10 0.00 66 1007.3
20260505173511 51 272 1.0 3.0 0.00 0.10 0.00 60 1007.3
20260505173028 51 291 0.0 4.0 0.00 0.10 0.00 59 1007.4
20260505172512 51 272 2.0 4.0 0.00 0.10 0.00 58 1007.3
20260505172011 51 275 2.0 4.0 0.00 0.10 0.00 60 1007.2
20260505171529 52 334 1.0 7.0 0.00 0.10 0.00 56 1006.9
20260505171013 52 282 2.0 7.0 0.00 0.10 0.00 58 1006.9
20260505170509 52 321 2.0 6.0 0.00 0.10 0.00 60 1006.9
20260505170035 52 299 2.0 6.0 0.00 0.10 0.00 59 1006.8
20260505165510 52 295 2.0 6.0 0.00 0.10 0.00 62 1006.8
20260505165012 52 272 2.0 6.0 0.00 0.10 0.00 59 1006.8
20260505164533 52 312 1.0 7.0 0.00 0.10 0.00 59 1006.9
20260505164010 52 276 3.0 7.0 0.00 0.10 0.00 59 1007.0
20260505163512 52 337 2.0 7.0 0.00 0.10 0.00 58 1006.9
20260505163033 52 268 3.0 7.0 0.00 0.10 0.00 59 1006.8
20260505162515 53 353 2.0 7.0 0.00 0.10 0.00 60 1006.7
20260505162012 52 271 2.0 6.0 0.00 0.10 0.00 60 1006.6
20260505161530 52 283 2.0 5.0 0.00 0.10 0.00 58 1006.6
20260505161012 52 333 2.0 5.0 0.00 0.10 0.00 59 1006.5
20260505160513 51 272 1.0 4.0 0.00 0.10 0.00 61 1006.4
20260505153031 51 325 2.0 6.0 0.00 0.10 0.00 63 1006.6
20260505152512 51 314 1.0 8.0 0.00 0.10 0.00 64 1007.0
20260505152012 51 286 2.0 8.0 0.00 0.10 0.00 63 1006.7
20260505151538 52 320 2.0 8.0 0.00 0.10 0.00 64 1006.7
20260505151013 52 280 3.0 8.0 0.00 0.10 0.00 65 1006.8
20260505150515 53 275 3.0 7.0 0.00 0.10 0.00 67 1006.3
20260505140516 53 330 2.0 9.0 0.00 0.10 0.00 61 1005.0
20260505125014 49 360 1.0 5.0 0.00 0.10 0.00 75 1003.6
20260505124536 49 1 1.0 5.0 0.00 0.10 0.00 76 1003.6
20260505124016 48 280 1.0 4.0 0.00 0.10 0.00 78 1003.9
20260505123518 48 289 1.0 7.0 0.00 0.10 0.00 78 1003.9
20260505123034 48 282 2.0 7.0 0.00 0.10 0.00 79 1004.0
20260505122513 48 260 2.0 7.0 0.00 0.10 0.00 80 1004.1
20260505122010 47 306 1.0 3.0 0.00 0.10 0.00 81 1003.9
20260505121537 47 303 1.0 4.0 0.00 0.10 0.00 80 1003.6
20260505121012 47 337 1.0 7.0 0.00 0.10 0.00 81 1003.4
20260505120512 46 273 2.0 7.0 0.00 0.10 0.00 81 1003.2
20260505120032 46 0 0.0 4.0 0.00 0.10 0.00 82 1003.1
20260505115512 46 270 1.0 6.0 0.00 0.10 0.00 82 1003.3
20260505115011 46 281 1.0 7.0 0.00 0.10 0.00 82 1003.3
20260505114529 46 272 2.0 7.0 0.00 0.10 0.00 83 1003.1
20260505114011 46 287 2.0 7.0 0.00 0.10 0.00 83 1003.1
20260505113510 46 275 1.0 7.0 0.00 0.10 0.00 84 1002.7
20260505113038 46 299 2.0 4.0 0.00 0.10 0.00 85 1002.6
20260505112513 46 265 1.0 4.0 0.00 0.10 0.00 84 1002.4
20260505112014 46 272 1.0 4.0 0.00 0.10 0.00 84 1001.8
20260505111541 46 280 2.0 3.0 0.00 0.10 0.00 83 1001.9
20260505111011 47 276 1.0 3.0 0.00 0.10 0.00 82 1001.7
20260505110514 47 274 0.0 4.0 0.00 0.10 0.00 82 1001.5
20260505102011 56 266 3.0 11.0 0.00 0.10 0.00 81 1000.8
20260505101534 57 216 1.0 6.0 0.00 0.10 0.00 80 1000.7
20260505101009 57 287 2.0 5.0 0.00 0.10 0.00 80 1000.8
20260505100510 57 263 2.0 9.0 0.00 0.10 0.00 80 1000.7
20260505100028 57 224 2.0 9.0 0.00 0.10 0.00 80 1000.5
20260505095512 57 249 1.0 5.0 0.00 0.10 0.00 79 1000.4
20260505095012 57 216 1.0 6.0 0.00 0.10 0.00 79 1000.4
20260505094527 57 210 2.0 8.0 0.00 0.10 0.00 79 1000.4
20260505094012 57 241 2.0 8.0 0.00 0.10 0.00 79 1000.4
20260505093512 57 216 3.0 8.0 0.00 0.10 0.00 79 1000.3
20260505093034 58 239 2.0 7.0 0.00 0.10 0.00 79 1000.2
20260505092516 58 204 2.0 7.0 0.00 0.10 0.00 78 1000.2
20260505092012 58 0 1.0 6.0 0.00 0.10 0.00 78 1000.1
20260505091530 58 214 2.0 6.0 0.00 0.10 0.00 78 999.9
20260505091010 58 207 1.0 5.0 0.00 0.10 0.00 78 999.8
20260505090511 58 192 1.0 10.0 0.00 0.10 0.00 78 999.8
20260505090031 58 261 2.0 10.0 0.00 0.10 0.00 77 999.7
20260505085512 58 0 1.0 8.0 0.00 0.10 0.00 77 999.8
20260505085012 58 180 2.0 13.0 0.00 0.10 0.00 77 999.8
20260505084532 58 256 3.0 13.0 0.00 0.10 0.00 77 999.9
20260505084011 59 232 2.0 6.0 0.00 0.10 0.00 76 999.7
20260505083512 59 267 1.0 6.0 0.00 0.10 0.00 76 999.4
20260505083033 59 222 1.0 9.0 0.00 0.10 0.00 75 999.5
20260505082512 59 140 2.0 11.0 0.00 0.10 0.00 75 999.3
20260505082010 59 214 2.0 11.0 0.00 0.10 0.00 75 999.2
20260505081530 59 216 3.0 11.0 0.00 0.10 0.00 75 999.2
20260505081013 59 175 2.0 10.0 0.00 0.10 0.00 74 999.1
20260505080514 59 163 2.0 6.0 0.00 0.10 0.00 75 999.2
20260505080031 59 237 1.0 8.0 0.00 0.10 0.00 75 999.1
20260505075511 59 213 3.0 8.0 0.00 0.10 0.00 74 999.2
20260505075012 60 198 2.0 8.0 0.00 0.10 0.00 74 999.4
20260505074531 60 185 1.0 8.0 0.00 0.10 0.00 74 999.3
20260505074012 60 250 0.0 8.0 0.00 0.10 0.00 73 999.3
20260505073509 60 223 1.0 8.0 0.00 0.10 0.00 73 999.2
20260505073031 60 206 2.0 8.0 0.00 0.10 0.00 72 999.3
20260505072512 61 275 2.0 9.0 0.00 0.10 0.00 72 999.3
20260505072013 61 209 3.0 9.0 0.00 0.10 0.00 72 999.2
20260505071532 61 235 3.0 8.0 0.00 0.10 0.00 72 999.1
20260505071013 61 172 2.0 6.0 0.00 0.10 0.00 73 999.1